Showing default

IRIDIUM 160, 43569

Orbit data source: Space-Track

IRIDIUM 160, 43569 is a payload satellite owned by Iridium (US) in LEO that was launched on Wed, 25 Jul 2018 UTC via an FALCON 9 launch vehicle from the Air Force Western Test Range (AFWTR). Payload-class satellites include a variety of spacecraft equipped with specific instruments for various scientific and technological missions. These include communications satellites like Starlink; space stations such as the ISS; scientific satellites like the Hubble; Earth observation satellites from companies like Planet Labs, Umbra, and HawkEye 360; GPS; miniature CubeSats for education and research; and military/defense satellites.

Loading next visibility...
Identifier
43569, 2018-061A
Orbit
LEO
Country
Flag of USUS
Related business
Manufacturer
NGIS SSG Gilbert
Mission
Operational Commercial Communications
Bus & Motor
ELITEBUS, Unknown motor
Mass
860 kg wet, 700 kg dry
Launch date (UTC)
2018-07-25 (8 years ago)
Launch vehicle
FALCON 9
Launch site
Air Force Western Test Range (AFWTR)
Object type
Payload
Rocket body
Debris
Shape & HBR
Trap Box + 2 Pan, 4.8 m
Radar Cross Section
10.154 m², Large (>1 m²)

Expand to show TLE details & history
Last TLE update: 11 hours ago

TLE from 11 hours ago
0 IRIDIUM 160
1 43569U 18061A   26123.89687945  .00000229  00000-0  74611-4 0  9999
2 43569  86.3951  75.3123 0002176  86.7468 273.3977 14.34218170407029
Epoch: 2026-05-03T21:31Z
TLE epoch observation values (Epoch: 2026-05-03T21:31:30.384Z)
Latitude
Longitude
-109.35814°
Altitude
780.625 km
Speed
7.464 km/s
True Right ascension
05h 01m 14s
True Declination
0° 00' 00"
Sunlit
Object was in daylight at epoch
Visualization orbit readout
Latitude
Unknown
Longitude
Unknown
Altitude
Unknown
Speed
Unknown
Apparent Right ascension
Unknown
Apparent Declination
Unknown
Sunlit
N/A
Visualization observer readout
Local Sidereal Time
16:01:40
Azimuth
Unknown
Elevation
Unknown
Doppler factor
Unknown
Orbital elements
Apogee altitude
776.187 km
Perigee altitude
773.074 km
Semi-major axis
7,152.767 km
Eccentricity
0.00022
Inclination
86.3951°
RAAN
75.3123°
Arg. of periapsis
86.7468°
True anomaly
273.37281°
Mean anomaly
273.3977°
Eccentric anomaly
273.38525°
Mean motion
3.58783 °/min
Orbital period
100.34 mins
BSTAR
0.000074611
Loading maneuver chart data...
Computing Atmospheric mass density...
Loading historical data...
Loading historical data...
Loading historical data...
Loading historical data...
Loading historical data...
Loading historical data...
Loading historical data...

Documentation

Showing up to 5 results
|